[[{"header":{"parameterUnit":"m.s-1","parameterCategory":1,"la1":30.2991,"la2":30.254,"lo1":-89.0895,"lo2":-89.0444,"dy":0.0017,"dx":0.0017,"nx":28,"ny":28,"refTime":"2025-04-12T09:00:00:Z","depth":0,"parameterNumber":2,"parameterNumberName":"U-component_of_WINDS"},"data":[0,0,0,0,0,0,0,0,0,0,0,0,0,0,0,0,0,0,0,0,0,0,0,0,0,0,0,0,0,0,0,0,0,0,0,0,0,0,0,0,0,0,0,0,0,0,0,0,0,0,0,0,0,0,0,0,0,0,3.3259,3.326,0,3.338,3.3381,3.3383,3.336,3.3358,3.3355,3.3353,3.3476,3.3481,3.3486,0,0,0,0,0,0,0,0,0,0,0,0,0,3.3003,3.3007,3.3259,3.326,3.3262,3.338,3.3381,3.3383,3.336,3.3358,3.3355,3.3352,3.3474,3.348,3.3486,0,0,0,0,0,0,0,0,0,0,0,0,0,3.3118,3.3009,3.3258,3.3264,3.3266,3.3379,3.3381,3.3383,3.3361,3.3357,3.3354,3.3351,3.3472,3.348,3.3487,3.3601,0,0,3.3512,3.3515,0,0,0,0,0,0,0,0,3.3111,3.3127,3.3262,3.3264,3.3266,3.3351,3.3336,3.3456,3.3362,3.3325,3.3353,3.335,3.3437,3.3447,3.3477,3.3607,3.3612,3.3512,3.3517,3.352,3.3523,0,0,0,0,0,0,0,3.3103,3.3122,3.3306,3.3264,3.3267,3.326,3.3272,3.3359,3.3397,3.3328,3.3326,3.3341,3.3437,3.347,3.348,3.3614,3.3512,3.3519,3.3524,3.3527,3.3837,3.3841,0,0,0,0,0,0,3.3094,3.3115,3.3303,3.331,3.3179,3.3267,3.3281,3.3327,3.3397,3.3404,3.3344,3.334,3.3458,3.3471,3.3484,3.3618,3.352,3.3528,3.3532,3.3834,3.3838,3.3842,0,0,0,0,0,0,3.3088,3.3111,3.3298,3.3212,3.3236,3.3275,3.3327,3.3331,3.3364,3.3409,3.3415,3.337,3.3456,3.3473,3.3571,3.3622,3.3531,3.3539,3.383,3.3835,3.384,3.3889,0,0,0,0,0,0,3.3081,3.3109,3.3154,3.3214,3.324,3.3384,3.333,3.3336,3.3378,3.3373,3.3435,3.3442,3.3454,3.3559,3.3579,3.3631,3.3545,3.3825,3.3832,3.3838,3.3883,3.3895,3.3905,0,0,0,0,0,3.3072,3.3164,3.3156,3.3179,3.3298,3.3387,3.3402,3.3416,3.3382,3.3426,3.3454,3.344,3.3614,3.357,3.3592,3.3647,3.3822,3.383,3.3838,3.3878,3.3893,3.3905,0,0,0,0,0,0,3.3109,3.3172,3.3164,3.3278,3.3328,3.3383,3.344,3.3432,3.3491,3.3485,3.3498,3.3512,3.3611,3.3639,3.3589,3.3758,3.3713,3.3726,3.3736,3.375,3.3761,3.3751,3.3551,0,0,0,0,0,3.3131,3.3199,3.325,3.3345,3.337,3.3401,3.3441,3.3446,3.3498,3.3518,3.3554,3.3603,3.3668,3.3711,3.3775,3.3887,3.3898,3.3936,3.3947,3.3956,3.3966,3.4023,3.4039,3.3868,3.3868,3.3868,0,0,3.3176,3.3218,3.3261,3.3354,3.3393,3.3461,3.3419,3.3495,3.3544,3.353,3.3623,3.3651,3.3707,3.3812,3.386,3.3838,3.4016,3.3966,3.3973,3.3978,3.4032,3.4049,3.4063,3.3873,3.3872,3.3871,0,0,3.3291,3.3333,3.3414,3.3453,3.3513,3.3532,3.3551,3.3608,3.3625,3.372,3.3708,3.3768,3.3882,3.392,3.3955,3.4082,3.4069,3.4102,3.4161,3.4216,3.4229,3.4241,3.4282,3.4297,3.4112,3.4113,3.4113,0,3.3339,3.3444,3.3457,3.3533,3.3572,3.3561,3.3642,3.3679,3.3756,3.3782,3.3758,3.3897,3.3934,3.4045,3.4076,3.4106,3.4125,3.4094,3.4226,3.4239,3.425,3.4289,3.4305,3.4116,3.4116,3.4115,3.4115,0,3.3497,3.357,3.3628,3.3701,3.3747,3.3826,3.3848,3.3893,3.3894,3.3915,3.4009,3.4053,3.4122,3.415,3.4153,3.426,3.4244,3.4224,3.4178,3.4269,3.4306,3.4321,3.4121,3.4119,3.4118,3.4118,0,0,3.364,3.3718,3.3738,3.3769,3.3833,3.3888,3.3964,3.4031,3.4068,3.4121,3.4182,3.4277,3.4256,3.4295,3.4302,3.4351,3.4442,3.4323,3.4324,3.434,3.4559,3.4571,3.4589,3.4435,3.4438,3.4441,3.4552,0,3.3759,3.3893,3.3906,3.4025,3.4089,3.4079,3.4144,3.4189,3.421,3.4266,3.4289,3.4354,3.4325,3.4347,3.4396,3.4421,3.4486,3.4414,3.4489,3.4492,3.4472,3.4609,3.4624,3.4727,3.4567,3.457,3.4572,0,3.3915,3.3971,3.4097,3.4147,3.4174,3.4233,3.4293,3.4349,3.4397,3.4409,3.4451,3.445,3.4525,3.4479,3.458,3.4531,3.4562,3.4579,3.4583,3.4588,3.4535,3.4614,3.4761,3.4775,3.4595,3.4594,3.4592,0,3.4001,3.4108,3.4195,3.4223,3.4285,3.4326,3.4353,3.4399,3.4438,3.4491,3.4515,3.4576,3.4609,3.4655,3.4669,3.4635,3.4769,3.4725,3.4778,3.4777,3.4804,3.4802,3.4954,3.4831,3.4831,3.483,3.483,0,3.413,3.4206,3.4234,3.4288,3.4372,3.4385,3.4467,3.4492,3.4532,3.4588,3.4584,3.4637,3.4654,3.4709,3.4721,3.48,3.4817,3.4826,3.4827,3.4824,3.4822,3.4843,3.4834,3.4834,3.4833,3.4833,3.4832,0,3.4239,3.4262,3.4356,3.4406,3.442,3.4479,3.4521,3.4571,3.4591,3.4662,3.4679,3.471,3.4774,3.4793,3.4871,3.4878,3.497,3.4968,3.4953,3.4953,3.5003,3.4996,3.5171,3.5193,3.5058,3.506,3.5061,0,3.4318,3.4376,3.4432,3.4469,3.4498,3.4559,3.4598,3.4612,3.4652,3.471,3.4752,3.4816,3.4867,3.4969,3.4997,3.5055,3.5051,3.5108,3.506,3.5053,3.5047,3.5041,3.5045,3.5116,3.5118,3.5119,3.512,0,3.4455,3.4462,3.4518,3.4578,3.4624,3.4671,3.4717,3.4747,3.4768,3.4813,3.4878,3.4917,3.4995,3.5056,3.5115,3.5141,3.5133,3.5135,3.515,3.5145,3.5133,3.5136,3.4974,3.5131,3.513,3.5129,3.5128,3.5128,3.4548,3.4598,3.4643,3.4705,3.4741,3.4782,3.4831,3.4856,3.491,3.4975,3.498,3.5049,3.5093,3.517,3.5199,3.5252,3.5235,3.5257,3.5262,3.5267,3.5268,3.5128,3.5263,3.5263,3.5263,3.5263,3.5262,0,3.4681,3.4709,3.4766,3.4829,3.4876,3.4866,3.4914,3.4954,3.5015,3.5057,3.5107,3.5179,3.5238,3.527,3.5328,3.5364,3.5361,3.5378,3.5374,3.5379,3.5283,3.5262,3.5379,3.5379,3.5379,3.5379,3.5379,3.5379,3.4755,3.4836,3.4848,3.4946,3.4974,3.5042,3.507,3.5107,3.514,3.5221,3.527,3.529,3.5327,3.5387,3.5439,3.5447,3.5466,3.5485,3.549,3.5398,3.5386,3.5375,3.5355,3.549,3.549,3.5581,3.5582,3.5583]},{"header":{"parameterUnit":"m.s-1","parameterCategory":1,"la1":30.2991,"la2":30.254,"lo1":-89.0895,"lo2":-89.0444,"dy":0.0017,"dx":0.0017,"nx":28,"ny":28,"refTime":"2025-04-12T09:00:00:Z","depth":0,"parameterNumber":3,"parameterNumberName":"V-component_of_WINDS"},"data":[0,0,0,0,0,0,0,0,0,0,0,0,0,0,0,0,0,0,0,0,0,0,0,0,0,0,0,0,0,0,0,0,0,0,0,0,0,0,0,0,0,0,0,0,0,0,0,0,0,0,0,0,0,0,0,0,0,0,3.7462,3.7462,0,3.7545,3.7546,3.7547,3.7503,3.7501,3.7499,3.7497,3.7578,3.7582,3.7586,0,0,0,0,0,0,0,0,0,0,0,0,0,3.7259,3.7263,3.7461,3.7462,3.7464,3.7545,3.7546,3.7547,3.7504,3.7501,3.7498,3.7496,3.7577,3.7582,3.7587,0,0,0,0,0,0,0,0,0,0,0,0,0,3.7345,3.7265,3.7461,3.7452,3.7452,3.7544,3.7546,3.7547,3.7504,3.7501,3.7498,3.7495,3.7575,3.7581,3.7587,3.7693,0,0,3.7607,3.7609,0,0,0,0,0,0,0,0,3.734,3.7353,3.7452,3.7453,3.7453,3.751,3.7504,3.7596,3.7505,3.7484,3.7497,3.7493,3.7558,3.7565,3.7588,3.7696,3.77,3.7607,3.7611,3.7614,3.7616,0,0,0,0,0,0,0,3.7334,3.7349,3.7494,3.7454,3.7454,3.7442,3.745,3.7521,3.7538,3.7486,3.7483,3.7494,3.7557,3.7582,3.759,3.7701,3.7607,3.7613,3.7617,3.7619,3.7896,3.79,0,0,0,0,0,0,3.733,3.7344,3.7492,3.7497,3.7387,3.7448,3.7457,3.7495,3.7538,3.7541,3.7496,3.7491,3.7573,3.7582,3.7592,3.7716,3.7614,3.762,3.7623,3.7893,3.7897,3.7901,0,0,0,0,0,0,3.7326,3.7343,3.7488,3.742,3.7437,3.7455,3.7498,3.7499,3.7523,3.7546,3.7548,3.7519,3.7571,3.7584,3.7668,3.7719,3.7623,3.7628,3.7889,3.7894,3.7899,3.7966,0,0,0,0,0,0,3.732,3.7342,3.7384,3.7421,3.7441,3.7564,3.7501,3.7503,3.7535,3.7529,3.7567,3.7571,3.7569,3.7658,3.7674,3.7726,3.7633,3.7884,3.7891,3.7897,3.796,3.7973,3.7985,0,0,0,0,0,3.7313,3.7399,3.7386,3.7404,3.7494,3.7567,3.7578,3.7576,3.7539,3.758,3.7594,3.7569,3.7711,3.7667,3.7684,3.7739,3.7881,3.7889,3.7897,3.7954,3.7971,3.7985,0,0,0,0,0,0,3.7367,3.7404,3.739,3.7491,3.7527,3.756,3.7612,3.7595,3.764,3.7632,3.7626,3.7635,3.7722,3.7739,3.769,3.7841,3.779,3.7801,3.7827,3.7843,3.7856,3.7849,3.7639,0,0,0,0,0,3.7391,3.7449,3.7477,3.7564,3.7582,3.7594,3.7626,3.7621,3.7657,3.7671,3.7691,3.7725,3.7777,3.7811,3.786,3.7962,3.7968,3.8007,3.802,3.803,3.804,3.8092,3.811,3.7927,3.7927,3.7927,0,0,3.744,3.7468,3.7505,3.7576,3.7602,3.766,3.7607,3.7671,3.7713,3.768,3.7761,3.7776,3.7814,3.7906,3.7948,3.7923,3.8092,3.8041,3.8049,3.8053,3.8102,3.812,3.8135,3.7933,3.7932,3.7931,0,0,3.756,3.7588,3.7662,3.769,3.7731,3.7737,3.7755,3.7791,3.78,3.7881,3.7856,3.7905,3.7996,3.8022,3.8048,3.8175,3.8153,3.8191,3.8258,3.8308,3.8323,3.8335,3.8379,3.8395,3.8201,3.8202,3.8202,0,3.7616,3.7705,3.7702,3.7768,3.7798,3.7771,3.7845,3.7871,3.7926,3.7946,3.7918,3.8028,3.8052,3.8149,3.818,3.8202,3.822,3.8187,3.8321,3.8334,3.8346,3.8387,3.8403,3.8206,3.8205,3.8205,3.8204,0,3.777,3.7832,3.7886,3.794,3.7977,3.8046,3.8051,3.8089,3.808,3.8089,3.817,3.8197,3.825,3.8272,3.8265,3.8368,3.8351,3.8322,3.827,3.8367,3.8406,3.8422,3.8212,3.821,3.8209,3.8208,0,0,3.7927,3.7978,3.7998,3.8021,3.8063,3.8109,3.8176,3.8228,3.8259,3.8297,3.8351,3.8427,3.84,3.8429,3.8423,3.8468,3.8564,3.8433,3.8434,3.8455,3.8677,3.8697,3.8716,3.855,3.8553,3.8556,3.8673,0,3.8049,3.8167,3.8165,3.8274,3.8329,3.8303,3.8361,3.8391,3.8401,3.8447,3.8457,3.851,3.8472,3.8489,3.8532,3.8544,3.8609,3.8535,3.8598,3.8601,3.8589,3.8736,3.8759,3.8868,3.8688,3.8691,3.8693,0,3.8206,3.825,3.8364,3.8396,3.8419,3.8472,3.8518,3.8564,3.8597,3.86,3.8632,3.8619,3.8683,3.863,3.8718,3.8668,3.8693,3.8703,3.8707,3.8712,3.8652,3.8743,3.8903,3.8919,3.8717,3.8715,3.8713,0,3.8307,3.8394,3.8473,3.8494,3.8534,3.857,3.8588,3.8619,3.8649,3.869,3.8709,3.8756,3.8781,3.8817,3.8815,3.8777,3.8904,3.8851,3.8906,3.8906,3.8934,3.8932,3.9098,3.8952,3.8952,3.8952,3.8952,0,3.8442,3.8512,3.8519,3.8567,3.8644,3.864,3.8716,3.873,3.8757,3.8806,3.8786,3.8832,3.8829,3.8874,3.8874,3.8945,3.8957,3.896,3.8959,3.8961,3.896,3.8977,3.8969,3.8956,3.8955,3.8954,3.8954,0,3.8567,3.8575,3.8659,3.8689,3.8698,3.8754,3.8779,3.8823,3.8831,3.8893,3.8907,3.8918,3.8971,3.8973,3.9034,3.9033,3.9119,3.911,3.9108,3.9106,3.9161,3.9155,3.9343,3.9366,3.9207,3.9208,3.921,0,3.8652,3.8706,3.8742,3.8774,3.8794,3.8846,3.8877,3.8875,3.8907,3.8948,3.8987,3.9038,3.9079,3.9163,3.9175,3.9221,3.9212,3.9274,3.9218,3.9218,3.921,3.9206,3.9211,3.9285,3.9286,3.9288,3.9289,0,3.8802,3.8802,3.8849,3.8897,3.8934,3.8971,3.9006,3.9032,3.9033,3.9071,3.9125,3.9156,3.9217,3.9267,3.9311,3.9327,3.9307,3.9307,3.9322,3.9324,3.932,3.9321,3.9136,3.9302,3.9301,3.93,3.9299,3.9299,3.8908,3.8954,3.8986,3.9038,3.9063,3.9095,3.9138,3.9151,3.9196,3.9247,3.9242,3.9301,3.933,3.9386,3.9406,3.945,3.9429,3.9451,3.9456,3.9461,3.9466,3.9314,3.9459,3.9458,3.9458,3.9458,3.9457,0,3.9055,3.9074,3.9122,3.9171,3.9211,3.919,3.9226,3.926,3.9313,3.9343,3.9383,3.9443,3.9491,3.9506,3.9552,3.9584,3.9576,3.9596,3.9593,3.9596,3.9484,3.9466,3.9601,3.9601,3.9601,3.9601,3.9601,3.9601,3.9136,3.9211,3.9215,3.9302,3.932,3.9378,3.94,3.9429,3.9452,3.9521,3.956,3.9571,3.9593,3.964,3.9682,3.9685,3.9701,3.9725,3.9724,3.9619,3.9604,3.9591,3.9573,3.9729,3.9729,3.9832,3.9833,3.9834]}]]